Вернуться в каталог

STARLINK-32441

АктивенСвязьVLEO
NORAD 61668·PAYLOAD·🇺🇸 United States

Запущен Oct 26, 2024 с Cape Canaveral Space Force Station

Loading…

Ближайшие Пролёты (ближайшие 24 часа)

TLE

СвежийSource: CelesTrak SupGP

Эпоха: Sep 15, 2026, 03:39 UTC

1 61668C 24193H   26258.15256944 -.00000647  00000+0 -19105-4 0  2581
2 61668  53.1593 290.3879 0001185  93.0296 225.7295 15.34397316    12

Отслеживайте STARLINK-32441 в реальном времени с AllMySat

Download on the App Store